Location: Burbank
(38.7788°N, 114.0429°W)
Time: 01:24:43
(UTC+00:00)

Tiros 1 despin weight - Pass Details

Date: 14 May 2026
Orbit: 554 x 591 km, 48.2° (Epoch: 6 June)

Event Time Altitude Azimuth Distance (km) Brightness Sun altitude
Rises 15:17:58 0° 286° (WNW) 2,741 ? 31.9°
Reaches altitude 10° 15:20:36 10° 301° (WNW) 1,841 ? 32.4°
Maximum altitude 15:23:58 23° 355° (N) 1,215 ? 33.1°
Drops below altitude 10° 15:27:19 10° 48° (NE) 1,835 ? 33.8°
Sets 15:29:57 0° 63° (ENE) 2,729 ? 34.3°
